PEGASUS DEB

Satellite information

Favourite Embed

Satellite Type and Status

DEBRISIN ORBIT

Key statistics

Satellite PEGASUS DEB at a glance.

Uptime

11434

Days in orbit

Revolutions

≈ 14.6

Per day

Orbit

LEO

Low Earth Orbit

Inclination

81.9

Latest

Satellite identification and parameters

Extended collection of information and parameters for PEGASUS DEB.

Object identification

Identified? True

Debris? True

Object name: PEGASUS DEB

International designator: 1994-029AFD

Object number (NORAD): 39318

Object ID (CCSDS): 39318

Country: UNITED STATES OF AMERICA (US)

Current information (Y/N): Y

RCS size: SMALL

Orbital parameters

Period: 98.351 minutes

Inclination: 81.9482 deg

SMA: 7057.985 km

Apoapsis: 812.177 km

Periapsis: 547.523 km

RAAN: 354.2749 deg

Eccentricy: 0.01874857

Argument of periapsis: 192.2068 deg

Mean anomaly: 185.139 deg

Mean motion: 14.64136943 rev/day

Mean motion (dot): 0.00003883 rev/day2

B* drag term: 0.00056772369 1/REarth

Two-line elements (TLE)

Creation date: Sept. 4, 2025, 4:29 a.m.

Reference frame: TEME

Reference center: EARTH

Epoch: Sept. 3, 2025, 1:53 p.m. UTC

TLE line 0: 0 PEGASUS DEB

TLE line 1: 1 39318U 94029AFD 25246.57853792 .00003883 00000-0 56772-3 0 9995

TLE line 2: 2 39318 81.9482 354.2749 0187486 192.2068 185.1390 14.64136943236126

Live tracking on map

Real-time ground track for satellite PEGASUS DEB.

In-orbit conjunctions

A list of the most updated potential collisions computed for object PEGASUS DEB.

Target Orbit TCA Probability of collision Miss distance Type
FREGAT R/B LEO 2025-03-01 15:26:37 0.0001157123 392.0 (m) ROCKET BODY

Associated space launch

PEGASUS DEB was lifted into orbit during the mission ‘Pegasus HAPS | Space Test Experiments Platform 2 (STEP-2)’, on board a Pegasus HAPS space rocket.

The launch took place on May 19, 1994, 5:03 p.m. from Edwards Air Force Base.

For more information about the launch, click the button.

Launch to space Pegasus HAPS | Space Test Experiments Platform 2 (STEP-2)
Pegasus HAPS | Space Test Experiments Platform 2 (STEP-2)

Agency: N/A

Status: Launch Successful

Launch date: May 19, 1994, 5:03 p.m. UTC

Rocket: Pegasus HAPS

Launch pad: Edwards Air Force Base

Location: Air launch to orbit

...

Latest news about this satellite

There are no fresh news available about this satellite. Check back as we update our databases every day.


Newsletter sign-up

Weekly statistics, charts and insights to help you stay on top of the space industry.